Location: Casaglia
(44.0333°N, 11.5167°E)
Time: 06:34:14
(UTC+00:00)

Tiangong - Visible Passes

Search period start: 02 August 2021 00:00
Search period end: 12 August 2021 00:00
Orbit: 373 x 386 km, 41.5° (Epoch: 01 August)

Date Brightness Start Highest point End Pass type
(mag) Time Alt. Az. Time Alt. Az. Time Alt. Az.
08 Aug 3.1 03:19:02 10° SSW 03:21:18 18° SSE 03:23:34 10° ESE visible
09 Aug 3.6 02:20:17 12° SSE 02:20:17 12° SSE 02:21:19 10° SE visible
10 Aug 2.5 02:53:49 20° SSW 02:55:01 26° SSE 02:57:42 10° E visible
11 Aug 3.6 01:55:13 13° ESE 01:55:13 13° ESE 01:55:57 10° ESE visible
11 Aug 1.6 03:27:18 12° WSW 03:30:04 45° S 03:33:06 10° E visible
